軌道要素
Epoch 2022 Jan. 21.0 TT = JDT 2459600.5
T 2022 June 17.67381 TT Rudenko
q 3.1325043 (2000.0) P Q
z +0.0008640 Peri. 266.09940 -0.14810818 +0.88682465
+/-0.0000011 Node 26.51140 +0.52175785 +0.44606810
e 0.9972935 Incl. 101.29641 -0.84013851 +0.12068671
From 541 observations 2020 Mar. 25-2022 Jan. 18, mean residual 0".4.
|